Dewpoint
74 72 71 71 57 55 53 55 61 58 58 62 60 58 60 62 59 55 69 71 72 72 73 75 76 76 76 76 75 75 75 74 74 75 75 76 75 75 74 75 75 74 74 74 74 74 73 73 73
73 71 73 67 53 50 51 56 58 58 61 62 61 60 60 61 65 67 68 72 72 73 73 74 76 76 76 75 75 76 76 75 74 76 75 75 74 74 74 74 74 73 73 73 74 73 73 73 73
73 72 65 60 52 50 52 55 57 61 61 61 61 62 61 63 66 67 70 72 72 73 74 74 75 75 76 75 76 75 74 74 73 73 74 75 75 75 74 73 73 74 74 73 73 73 73 72 73
71 68 66 54 52 51 55 57 59 59 60 61 61 61 65 68 66 69 71 72 72 73 74 75 75 75 75 76 76 75 73 75 74 74 74 73 72 72 72 74 75 74 73 73 73 73 73 73 73
64 66 55 51 52 56 58 59 59 59 60 60 61 61 63 68 70 70 71 72 72 72 74 74 76 75 75 74 73 72 73 76 73 74 75 75 74 73 74 74 74 73 73 73 73 73 73 73 73
61 62 50 50 55 58 60 60 60 61 61 60 60 61 64 69 68 70 71 72 73 72 73 74 75 75 75 72 74 75 75 75 75 74 74 75 74 74 74 73 72 72 72 72 72 72 72 72 73
59 52 50 53 55 57 59 61 59 60 59 60 61 60 65 67 69 69 70 72 73 73 73 73 74 74 75 72 75 75 75 75 75 74 74 73 73 73 72 72 72 72 72 72 71 72 72 73 73
61 50 53 55 55 55 59 60 60 60 59 61 62 59 62 67 69 70 71 71 72 72 73 73 73 73 73 71 73 75 75 74 73 73 74 74 73 73 73 74 73 73 73 73 72 72 72 73 71
56 46 50 52 54 56 60 59 61 61 61 62 63 62 66 68 69 70 69 70 70 71 71 72 72 73 73 74 73 73 72 72 72 72 73 73 74 73 73 73 75 74 74 74 73 73 75 75 71
49 45 45 53 55 57 59 59 60 60 61 62 64 66 67 67 68 67 67 68 68 70 70 71 71 71 72 74 73 72 73 73 72 72 71 72 72 72 72 74 75 74 72 71 75 75 74 69 70
47 43 45 55 58 59 59 60 61 60 59 61 62 65 66 66 67 65 67 68 68 69 70 70 70 71 70 71 70 71 72 72 72 71 69 70 73 73 73 73 71 71 72 73 73 73 73 69 69
42 47 55 58 59 59 59 61 60 61 61 63 63 65 64 64 65 65 67 67 67 68 70 70 71 70 70 71 70 71 72 71 71 71 72 72 73 71 72 72 72 73 74 73 70 72 72 70 70
46 53 56 58 59 60 61 61 61 61 63 64 63 63 64 63 65 66 67 67 67 68 69 70 70 70 70 70 69 70 70 70 70 70 71 73 73 71 72 73 72 69 67 72 72 72 71 71 70
53 55 57 58 59 61 60 61 60 60 63 63 62 62 62 63 64 64 66 65 66 67 67 68 69 69 68 68 68 68 69 71 71 72 71 72 73 73 73 73 71 69 69 72 72 73 72 71 72
50 55 57 58 59 60 59 57 60 61 61 61 61 62 62 63 63 63 64 64 65 65 65 66 67 69 65 64 65 68 69 70 70 70 72 73 73 73 72 73 71 71 70 68 71 72 71 71 69
45 46 52 54 58 59 52 49 61 62 60 60 60 61 61 61 61 63 63 63 64 64 63 64 67 68 68 68 67 69 70 69 70 68 69 69 70 73 73 73 72 72 71 69 71 72 71 70 69
42 41 39 48 55 57 56 54 61 62 61 60 60 60 61 61 61 61 62 62 62 63 62 63 67 68 68 69 70 69 68 70 70 68 68 69 70 72 73 73 73 74 73 72 72 70 70 70 70
37 38 41 42 49 55 55 54 61 61 61 60 60 60 61 60 60 61 61 61 61 61 62 63 65 68 68 68 69 68 68 69 69 68 68 68 69 70 71 72 73 73 72 72 72 70 70 70 69
39 39 39 43 47 52 53 55 60 61 60 60 61 61 61 61 62 62 61 61 60 60 61 62 64 67 67 67 66 66 65 67 67 67 68 70 70 69 69 73 73 72 72 72 72 70 70 69 70
40 40 40 42 45 46 51 54 59 60 60 60 60 59 61 62 62 63 63 62 61 59 60 61 64 66 66 67 67 66 66 66 67 68 70 70 68 69 70 71 72 73 72 72 72 71 70 69 69
39 37 38 38 43 49 51 49 57 59 60 59 60 59 60 61 61 62 63 63 62 61 60 60 63 66 66 67 67 67 68 68 68 68 68 67 68 69 70 71 72 73 73 72 70 72 71 70 70
32 38 39 39 38 36 44 36 51 56 58 59 59 59 59 60 61 62 62 63 63 62 63 63 64 66 66 66 66 66 65 64 66 67 67 68 70 70 72 71 72 69 72 70 68 71 71 70 68
32 39 39 40 39 37 41 38 39 54 55 57 59 59 59 60 60 61 62 63 63 63 63 64 66 66 67 66 66 66 66 66 67 68 68 68 69 71 72 73 68 67 69 68 69 71 70 70 69
37 38 33 31 35 33 36 36 34 50 52 55 57 59 60 60 60 61 62 63 63 64 64 65 66 66 66 67 67 67 66 66 66 67 67 68 69 70 71 72 69 68 69 69 71 70 69 69 68
34 33 30 28 29 30 33 36 34 41 50 53 55 57 59 60 60 61 62 63 63 63 63 64 65 65 66 66 67 67 67 67 67 67 68 68 68 68 71 72 70 71 70 71 70 69 68 65 64
31 31 30 27 25 23 35 35 33 41 45 51 54 56 58 59 60 60 61 62 63 63 64 64 64 65 66 66 66 68 68 67 67 68 68 68 69 71 72 72 72 71 71 68 66 64 64 62 61
29 32 32 28 27 27 27 29 30 45 45 50 52 54 57 58 59 60 61 62 63 64 64 64 64 65 66 66 67 68 68 68 67 68 70 70 72 71 72 72 71 70 66 64 62 61 60 60 60
27 28 26 27 28 26 26 26 27 39 43 46 49 53 56 58 58 59 61 62 63 63 64 64 65 65 66 66 67 68 68 69 69 70 70 71 72 72 72 69 66 64 62 60 59 57 57 59 59
25 24 25 26 27 26 25 26 30 38 44 45 47 51 55 57 57 58 60 62 63 63 64 64 64 65 66 66 67 68 69 69 70 70 71 72 72 73 69 64 61 58 57 56 56 56 57 57 58
22 23 24 25 23 25 25 25 30 37 44 45 46 51 53 55 56 58 60 61 63 63 64 64 64 65 66 67 67 68 70 71 71 71 72 72 72 69 63 60 57 56 55 54 54 54 56 57 57
Lifted_Index
-4 -4 -3 -2 -0 0 -0 -0 -1 -1 -1 -1 -1 -1 -1 -1 -1 -0 -0 -1 -2 -2 -3 -3 -4 -4 -4 -4 -4 -4 -4 -4 -5 -5 -5 -5 -5 -4 -4 -5 -5 -4 -4 -5 -5 -5 -5 -5 -5
-5 -4 -4 -2 -0 0 0 -0 -1 -1 -1 -1 -1 -1 -1 -1 -1 -0 -1 -1 -2 -2 -3 -3 -4 -4 -4 -4 -4 -4 -4 -4 -4 -5 -5 -5 -5 -4 -4 -4 -4 -4 -5 -5 -5 -5 -4 -4 -4
-5 -5 -4 -2 -0 0 -0 -0 -1 -1 -1 -1 -1 -1 -1 -1 -1 -1 -1 -2 -2 -3 -3 -3 -4 -4 -4 -4 -4 -4 -4 -4 -4 -4 -5 -5 -4 -4 -4 -4 -5 -5 -5 -5 -5 -5 -4 -4 -4
-5 -4 -3 -2 -1 -1 -1 -1 -1 -1 -1 -1 -1 -1 -1 -1 -1 -1 -1 -2 -3 -3 -3 -4 -4 -4 -4 -4 -4 -4 -4 -4 -5 -5 -5 -5 -5 -4 -4 -5 -5 -5 -5 -5 -5 -5 -5 -5 -4
-4 -4 -2 -1 -1 -1 -2 -1 -1 -1 -1 -1 -1 -1 -1 -1 -1 -0 -1 -2 -3 -3 -3 -4 -4 -4 -4 -4 -4 -4 -5 -5 -5 -6 -6 -6 -6 -5 -5 -5 -5 -5 -5 -5 -5 -5 -5 -5 -5
-3 -3 -2 -1 -1 -2 -2 -2 -1 -1 -1 -0 -0 -0 -0 -0 -0 -0 -1 -2 -3 -3 -3 -4 -4 -4 -4 -4 -4 -5 -6 -6 -6 -6 -7 -7 -7 -6 -6 -5 -5 -5 -5 -5 -5 -5 -5 -5 -5
-3 -2 -2 -1 -1 -2 -2 -2 -2 -1 -0 -0 -0 -0 -0 -0 -0 -0 -1 -1 -2 -3 -3 -4 -4 -5 -4 -4 -5 -6 -7 -7 -7 -7 -7 -7 -7 -7 -6 -5 -5 -5 -5 -5 -5 -5 -5 -5 -5
-3 -2 -1 -1 -1 -1 -1 -1 -1 -1 -0 0 0 -0 -0 -1 -1 -1 -1 -1 -2 -2 -3 -4 -4 -4 -4 -4 -5 -6 -6 -6 -6 -6 -6 -7 -7 -6 -6 -5 -5 -5 -5 -5 -5 -5 -5 -5 -5
-2 -1 -1 -1 -1 -1 -1 -1 -0 -0 -0 0 -0 -1 -1 -1 -1 -2 -2 -2 -2 -2 -2 -3 -3 -3 -4 -4 -4 -5 -5 -4 -4 -5 -5 -5 -5 -5 -5 -6 -6 -6 -5 -5 -5 -5 -5 -5 -4
-0 1 0 -1 -1 -2 -1 -1 -1 -0 0 0 -0 -1 -1 -1 -1 -2 -1 -2 -2 -2 -2 -2 -2 -3 -3 -3 -4 -3 -3 -3 -3 -3 -4 -4 -4 -4 -5 -5 -5 -5 -4 -4 -4 -5 -5 -4 -3
1 1 1 -1 -2 -2 -2 -1 -1 -0 -0 -0 -0 -0 -1 -1 -1 -1 -1 -1 -2 -2 -2 -2 -2 -2 -2 -2 -2 -2 -2 -2 -2 -3 -3 -4 -4 -4 -4 -4 -4 -4 -4 -3 -3 -4 -3 -3 -2
2 1 -0 -1 -2 -2 -2 -1 -1 -1 -0 -0 -0 -0 -0 -1 -1 -1 -1 -1 -1 -1 -1 -2 -2 -1 -1 -1 -1 -1 -1 -2 -2 -3 -3 -4 -4 -4 -4 -4 -4 -3 -3 -3 -3 -3 -3 -3 -3
1 0 -1 -1 -2 -2 -1 -1 -1 -1 -1 -1 -0 -0 -0 -0 -0 -1 -1 -1 -1 -1 -1 -2 -2 -1 -1 -1 -1 -1 -1 -2 -2 -3 -3 -4 -4 -4 -4 -4 -4 -3 -3 -3 -3 -3 -3 -3 -4
-0 -1 -1 -2 -2 -1 -1 -1 -1 -1 -1 -1 -0 -0 -0 -0 -0 -0 -1 -1 -0 -1 -1 -1 -1 -1 -0 -0 -0 -0 -1 -1 -2 -3 -3 -4 -4 -4 -4 -4 -4 -3 -3 -3 -3 -3 -4 -4 -4
-1 -1 -2 -2 -2 -1 -1 -0 -1 -1 -0 -0 -0 -0 -0 -0 0 0 0 0 0 -0 -1 -1 -1 -0 0 1 0 -0 -1 -1 -2 -2 -2 -3 -3 -4 -4 -4 -4 -4 -4 -3 -3 -4 -4 -4 -4
-1 -1 -1 -2 -2 -1 -0 0 -0 -1 -0 -0 0 0 -0 -0 0 0 1 1 1 1 0 0 0 0 0 1 0 -0 -0 -1 -1 -1 -1 -1 -2 -3 -4 -4 -5 -5 -4 -4 -4 -4 -4 -4 -4
0 1 0 -1 -1 -1 -0 -0 -0 -1 -0 -0 0 0 0 0 0 1 1 2 2 2 2 1 1 1 0 0 0 -0 -0 -0 -1 -1 -1 -1 -2 -3 -3 -4 -5 -5 -5 -5 -4 -4 -4 -4 -4
1 1 1 0 -1 -1 -1 -1 -1 -1 -0 -0 0 1 1 1 1 1 2 2 3 3 3 3 2 1 1 1 1 0 0 -0 -1 -1 -1 -1 -2 -2 -3 -4 -5 -5 -5 -5 -5 -5 -4 -4 -4
1 0 0 0 -0 -0 -0 -1 -1 -1 -0 -0 -0 0 1 1 1 1 2 2 2 3 3 4 3 2 1 1 1 1 1 0 -0 -1 -1 -2 -2 -3 -3 -4 -5 -5 -5 -6 -5 -5 -5 -4 -4
1 0 -0 -0 0 -0 -0 -0 -1 -0 -0 -0 -0 0 1 1 1 1 1 2 2 2 3 4 4 3 2 1 1 1 1 1 -0 -1 -2 -2 -3 -3 -4 -4 -5 -5 -5 -5 -5 -5 -4 -4 -4
0 0 0 0 0 -0 -0 -0 -0 -0 -0 0 0 0 1 1 1 1 1 2 2 2 3 3 4 4 3 2 1 1 1 0 -0 -1 -2 -2 -3 -4 -4 -5 -5 -5 -5 -5 -5 -4 -4 -4 -4
0 0 0 0 0 -0 -0 0 0 0 -0 0 0 0 1 1 1 1 1 1 2 2 2 3 3 3 3 2 1 1 0 -0 -1 -1 -2 -2 -3 -4 -5 -5 -5 -6 -6 -6 -5 -4 -4 -4 -3
1 0 0 0 0 0 0 0 0 0 -0 0 0 -0 0 1 1 1 1 1 1 2 2 3 3 3 2 2 1 0 -0 -1 -1 -1 -2 -3 -3 -4 -5 -6 -6 -6 -6 -6 -5 -5 -4 -3 -3
1 0 0 0 0 0 0 0 -0 -0 0 0 0 -0 0 1 1 1 1 1 1 2 2 2 3 3 2 1 1 0 -0 -1 -1 -2 -2 -3 -4 -4 -5 -6 -6 -6 -6 -6 -5 -5 -4 -3 -2
1 1 0 0 0 0 0 0 -0 -0 0 1 1 0 0 1 1 1 1 1 1 1 2 2 2 2 2 1 1 0 -0 -1 -1 -2 -3 -3 -4 -5 -5 -6 -6 -6 -6 -6 -6 -5 -4 -3 -1
1 1 1 1 0 1 1 0 0 0 1 1 1 1 1 1 1 1 1 1 1 1 2 2 2 2 2 1 1 0 -0 -1 -2 -3 -3 -4 -4 -5 -6 -6 -6 -6 -7 -6 -6 -5 -3 -1 0
2 2 2 1 1 1 1 1 0 0 1 1 2 1 1 1 1 1 1 1 1 1 2 2 2 2 2 2 1 0 -1 -2 -3 -3 -4 -4 -5 -6 -7 -7 -7 -7 -7 -6 -5 -4 -1 1 3
2 2 2 2 1 1 1 1 0 0 1 2 2 2 1 1 1 1 1 1 1 1 2 2 2 2 2 1 1 -0 -1 -2 -3 -4 -4 -5 -6 -7 -7 -7 -7 -7 -6 -5 -4 -2 1 4 5
2 2 2 2 1 1 1 1 1 1 0 1 2 2 2 1 1 1 1 1 1 1 1 2 2 2 1 1 -0 -1 -2 -3 -4 -5 -5 -6 -7 -7 -7 -7 -7 -7 -6 -4 -2 1 4 6 7
2 2 2 2 2 2 1 1 1 1 0 1 1 1 2 2 2 1 1 1 1 1 1 1 1 1 1 1 -0 -2 -3 -4 -5 -5 -6 -6 -7 -7 -7 -7 -7 -6 -5 -4 -1 3 6 7 7